Location: Aiyede
(8.4833°N, 4.4500°E)
Time: 08:44:46
(UTC+00:00)

Cosmos 2084 Rocket - Pass Details

Date: 24 September 2020
Orbit: 546 x 635 km, 62.8° (Epoch: 21 October)

Event Time Altitude Azimuth Distance (km) Brightness Sun altitude
Rises 18:27:30 0° 338° (NNW) 2,896 7.3 -13.4°
Reaches altitude 10° 18:29:46 10° 339° (NNW) 1,998 6.4 -13.9°
Maximum altitude 18:34:18 78° 66° (ENE) 648 3.5 -15.0°
Drops below altitude 10° 18:38:53 10° 152° (SSE) 2,011 5.9 -16.2°
Enters shadow 18:39:34 - 153° (SSE) 2,280 6.2 -16.3°
